Location: Ash Shall?l al Awwal
(24.0167°N, 32.8667°E)
Time: 19:52:50
(UTC+00:00)

SWIFT - Pass Details

Date: 02 March 2021
Orbit: 544 x 559 km, 20.6° (Epoch: 10 April)

Event Time Altitude Azimuth Distance (km) Brightness Sun altitude
Rises 16:45:51 0° 252° (WSW) 2,685 7.4 -13.1°
Reaches altitude 10° 16:48:11 10° 245° (WSW) 1,793 6.1 -13.7°
Maximum altitude 16:52:10 44° 173° (S) 747 2.9 -14.6°
Enters shadow 16:54:14 24° 114° (ESE) 1,130 3.4 -15.0°
